Weather History for KRKR - July, 2013

Change the Weather History Date:

Friday, July 19, 2013

  Actual Average (KFSM) Record (KFSM)
Temperature  
Mean Temperature 84 °F 83 °F  
Max Temperature 96 °F 93 °F 106 °F (1936)
Min Temperature 73 °F 72 °F 62 °F (1984)
Cooling Degree Days 20 18  
Month to date cooling degree days 322  
Year to date cooling degree days 951  
Since 1 June cooling degree days 707  
Growing Degree Days 34 (Base 50)    
Moisture  
Dew Point 72 °F    
Average Humidity 78    
Maximum Humidity 94    
Minimum Humidity 49    
Precipitation  
Precipitation 0.00 in 0.10 in 2.84 in (1908)
Month to date precipitation 2.08  
Year to date precipitation 25.55  
Sea Level Pressure  
Sea Level Pressure 30.01 in    
Wind  
Wind Speed 3 mph (SSW)    
Max Wind Speed 23 mph    
Max Gust Speed 32 mph    
Visibility 10 miles    
Events Rain , Thunderstorm    
T = Trace of Precipitation, MM = Missing Value Source: NWS Daily Summary

Daily Weather History Graph

Daily Weather History Graph

Search for Another Location

Airport or City:

Trip Planner

Search our weather history database for the weather conditions in past years. The results will help you decide how hot, cold, wet, or windy it might be!

Date:

Astronomy

Jul. 19, 2013 Rise Set
Actual Time 6:18 AM CDT 8:30 PM CDT
Civil Twilight 5:49 AM CDT 8:59 PM CDT
Nautical Twilight 5:14 AM CDT 9:34 PM CDT
Astronomical Twilight 4:36 AM CDT 10:12 PM CDT
Moon 5:34 PM CDT (7/19) 2:59 AM CDT (7/19)
Length of Visible Light 15h 09m
Length of Day
14h 11m
Waxing Gibbous, 87% of the Moon is Illuminated
Jul 19
Waxing Gibbous
Jul 22
Full
Jul 29
Last Quarter
Aug 6
New
Aug 14
First Quarter

Hourly Weather History & Observations

Time (CDT) Temp. Heat Index Dew Point Humidity Pressure Visibility Wind Dir Wind Speed Gust Speed Precip Events Conditions
12:15 AM 78.8 °F - 69.8 °F 74% 30.05 in 10.0 mi West 4.6 mph - N/A   Clear
12:35 AM 78.8 °F - 69.8 °F 74% 30.04 in 10.0 mi SW 5.8 mph - N/A   Clear
12:55 AM 78.8 °F - 69.8 °F 74% 30.04 in 10.0 mi Calm Calm - N/A   Clear
1:15 AM 78.8 °F - 71.6 °F 78% 30.03 in 10.0 mi Calm Calm - N/A   Clear
1:35 AM 77.0 °F - 69.8 °F 78% 30.04 in 10.0 mi SW 3.5 mph - N/A   Clear
1:55 AM 77.0 °F - 69.8 °F 78% 30.04 in 10.0 mi WSW 4.6 mph - N/A   Clear
2:15 AM 77.0 °F - 69.8 °F 78% 30.04 in 10.0 mi SW 6.9 mph - N/A   Clear
2:35 AM 77.0 °F - 69.8 °F 78% 30.04 in 10.0 mi WSW 5.8 mph - N/A   Clear
2:55 AM 77.0 °F - 69.8 °F 78% 30.04 in 10.0 mi SW 5.8 mph - N/A   Clear
3:15 AM 77.0 °F - 71.6 °F 83% 30.04 in 10.0 mi SSW 4.6 mph - N/A   Clear
3:35 AM 77.0 °F - 71.6 °F 83% 30.04 in 10.0 mi SSW 3.5 mph - N/A   Clear
3:55 AM 77.0 °F - 71.6 °F 83% 30.04 in 10.0 mi Calm Calm - N/A   Clear
4:15 AM 77.0 °F - 71.6 °F 83% 30.03 in 10.0 mi Calm Calm - N/A   Clear
4:35 AM 77.0 °F - 71.6 °F 83% 30.03 in 10.0 mi Calm Calm - N/A   Clear
4:55 AM 77.0 °F - 71.6 °F 83% 30.03 in 10.0 mi Calm Calm - N/A   Clear
5:15 AM 73.4 °F - 71.6 °F 94% 30.03 in 10.0 mi Calm Calm - N/A   Clear
5:35 AM 73.4 °F - 71.6 °F 94% 30.03 in 10.0 mi Calm Calm - N/A   Clear
5:55 AM 73.4 °F - 71.6 °F 94% 30.03 in 10.0 mi Calm Calm - N/A   Clear
6:15 AM 73.4 °F - 71.6 °F 94% 30.03 in 10.0 mi Calm Calm - N/A   Clear
6:35 AM 77.0 °F - 71.6 °F 83% 30.04 in 10.0 mi Calm Calm - N/A   Clear
6:55 AM 73.4 °F - 71.6 °F 94% 30.05 in 10.0 mi Calm Calm - N/A   Clear
7:15 AM 73.4 °F - 71.6 °F 94% 30.05 in 10.0 mi Calm Calm - N/A   Clear
7:35 AM 73.4 °F - 71.6 °F 94% 30.06 in 10.0 mi Calm Calm - N/A   Clear
7:55 AM 77.0 °F - 73.4 °F 89% 30.06 in 10.0 mi Calm Calm - N/A   Clear
8:15 AM 77.0 °F - 71.6 °F 83% 30.06 in 10.0 mi Calm Calm - N/A   Scattered Clouds
8:35 AM 77.0 °F - 71.6 °F 83% 30.06 in 10.0 mi Calm Calm - N/A   Clear
8:55 AM 78.8 °F - 71.6 °F 78% 30.06 in 10.0 mi Calm Calm - N/A   Clear
9:15 AM 80.6 °F 84.6 °F 71.6 °F 74% 30.05 in 10.0 mi Calm Calm - N/A   Clear
9:35 AM 80.6 °F 84.6 °F 71.6 °F 74% 30.06 in 10.0 mi Calm Calm - N/A   Clear
9:55 AM 82.4 °F 88.2 °F 73.4 °F 74% 30.05 in 10.0 mi SSW 3.5 mph - N/A   Clear
10:15 AM 82.4 °F 88.2 °F 73.4 °F 74% 30.05 in 10.0 mi Calm Calm - N/A   Clear
10:35 AM 84.2 °F 90.9 °F 73.4 °F 70% 30.05 in 10.0 mi Calm Calm - N/A   Clear
10:55 AM 86.0 °F 93.4 °F 73.4 °F 66% 30.05 in 10.0 mi Calm Calm - N/A   Clear
11:15 AM 89.6 °F 102.2 °F 77.0 °F 66% 30.05 in 10.0 mi SSE 3.5 mph - N/A   Clear
11:35 AM 89.6 °F 99.8 °F 75.2 °F 62% 30.04 in 10.0 mi Calm Calm - N/A   Clear
11:55 AM 89.6 °F 102.2 °F 77.0 °F 66% 30.03 in 10.0 mi SSE 3.5 mph - N/A   Clear
12:15 PM 91.4 °F 105.1 °F 77.0 °F 63% 30.03 in 10.0 mi South 3.5 mph - N/A   Clear
12:35 PM 91.4 °F 102.5 °F 75.2 °F 59% 30.02 in 10.0 mi South 3.5 mph - N/A   Clear
12:55 PM 91.4 °F 100.1 °F 73.4 °F 55% 30.01 in 10.0 mi Calm Calm - N/A   Clear
1:15 PM 91.4 °F 100.1 °F 73.4 °F 55% 30.00 in 10.0 mi ESE 3.5 mph - N/A   Clear
1:35 PM 91.4 °F 100.1 °F 73.4 °F 55% 29.99 in 10.0 mi Calm Calm - N/A   Clear
1:55 PM 91.4 °F 100.1 °F 73.4 °F 55% 29.98 in 10.0 mi Calm Calm - N/A   Clear
2:15 PM 91.4 °F 100.1 °F 73.4 °F 55% 29.97 in 10.0 mi Calm Calm - N/A   Clear
2:35 PM 95.0 °F 109.7 °F 77.0 °F 56% 29.95 in 10.0 mi Calm Calm - N/A   Scattered Clouds
2:55 PM 95.0 °F 104.5 °F 73.4 °F 49% 29.95 in 10.0 mi ENE 3.5 mph - N/A   Clear
3:15 PM 95.0 °F 104.5 °F 73.4 °F 49% 29.94 in 10.0 mi Calm Calm - N/A   Clear
3:35 PM 96.8 °F 109.6 °F 75.2 °F 50% 29.94 in 10.0 mi Calm Calm - N/A   Clear
3:55 PM 96.8 °F 109.6 °F 75.2 °F 50% 29.93 in 10.0 mi East 3.5 mph - N/A Thunderstorm Scattered Clouds
4:15 PM 95.0 °F 104.5 °F 73.4 °F 49% 29.93 in 10.0 mi Calm Calm - N/A   Mostly Cloudy
4:35 PM 95.0 °F 107.4 °F 75.2 °F 53% 29.92 in 10.0 mi NNE 4.6 mph - N/A Thunderstorm Mostly Cloudy
4:55 PM 91.4 °F 100.1 °F 73.4 °F 55% 29.93 in 10.0 mi ENE 8.1 mph - N/A Thunderstorm Thunderstorm
5:35 PM 73.4 °F - 71.6 °F 94% 30.00 in 10.0 mi South 23.0 mph 32.2 mph N/A Rain , Thunderstorm Light Thunderstorms and Rain
5:55 PM 73.4 °F - 71.6 °F 94% 29.99 in 10.0 mi South 11.5 mph 17.3 mph N/A Rain , Thunderstorm Light Thunderstorms and Rain
6:15 PM 77.0 °F - 71.6 °F 83% 29.98 in 10.0 mi South 10.4 mph - N/A Thunderstorm Thunderstorm
6:35 PM 73.4 °F - 69.8 °F 88% 29.98 in 10.0 mi WSW 4.6 mph - N/A   Scattered Clouds
6:55 PM 73.4 °F - 69.8 °F 88% 29.97 in 10.0 mi Calm Calm - N/A Thunderstorm Clear
7:15 PM 73.4 °F - 71.6 °F 94% 29.97 in 10.0 mi SW 4.6 mph - N/A   Clear
7:35 PM 73.4 °F - 71.6 °F 94% 29.98 in 10.0 mi WSW 6.9 mph - N/A   Clear
7:55 PM 73.4 °F - 71.6 °F 94% 29.97 in 10.0 mi WSW 6.9 mph - N/A   Clear
8:15 PM 73.4 °F - 71.6 °F 94% 29.96 in 10.0 mi WSW 3.5 mph - N/A   Clear
8:35 PM 77.0 °F - 73.4 °F 89% 29.96 in 10.0 mi Calm Calm - N/A   Clear
8:55 PM 77.0 °F - 73.4 °F 89% 29.96 in 10.0 mi WSW 3.5 mph - N/A   Clear
9:15 PM 77.0 °F - 73.4 °F 89% 29.96 in 10.0 mi Calm Calm - N/A   Clear
9:35 PM 77.0 °F - 73.4 °F 89% 29.96 in 10.0 mi WSW 3.5 mph - N/A   Clear
9:55 PM 77.0 °F - 73.4 °F 89% 29.97 in 10.0 mi Calm Calm - N/A   Clear
10:15 PM 77.0 °F - 73.4 °F 89% 29.96 in 10.0 mi SW 3.5 mph - N/A   Clear
10:35 PM 77.0 °F - 73.4 °F 89% 29.97 in 10.0 mi Calm Calm - N/A   Clear
10:55 PM 77.0 °F - 73.4 °F 89% 29.97 in 10.0 mi Calm Calm - N/A   Clear
11:15 PM 77.0 °F - 73.4 °F 89% 29.96 in 10.0 mi Calm Calm - N/A   Clear
11:35 PM 73.4 °F - 71.6 °F 94% 29.97 in 10.0 mi Calm Calm - N/A   Clear
11:55 PM 73.4 °F - 71.6 °F 94% 29.97 in 10.0 mi Calm Calm - N/A   Clear